Volver al catálogo

STARLINK-5043

ActivoComunicacionesVLEO
NORAD 53894·PAYLOAD·🇺🇸 United States

Lanzado Sep 24, 2022 desde Cape Canaveral Space Force Station

Loading…

Próximos Pases (próximas 24 horas)

TLE

ActualizadoSource: CelesTrak SupGP

Época: Sep 14, 2026, 21:40 UTC

1 53894C 22119J   26257.90326389 -.00029274  00000+0 -94133-3 0  2571
2 53894  53.1589 172.6363 0001354  95.5707 134.2342 15.31718398    12

Sigue STARLINK-5043 en tiempo real con AllMySat

Download on the App Store